Weather History for Soldotna, AK

Change the Weather History Date:

Friday, June 7, 2013

  Actual Average Record
Temperature  
Mean Temperature 54 °F -  
Max Temperature 68 °F 57 °F 69 °F (1983)
Min Temperature 41 °F 41 °F 28 °F (2006)
Degree Days  
Heating Degree Days 10    
Growing Degree Days 4 (Base 50)    
Moisture  
Dew Point 37 °F    
Average Humidity 51    
Maximum Humidity 76    
Minimum Humidity 37    
Precipitation  
Precipitation 0.00 in - - ()
Sea Level Pressure  
Sea Level Pressure 29.79 in    
Wind  
Wind Speed 6 mph (WSW)    
Max Wind Speed 17 mph    
Max Gust Speed 23 mph    
Visibility 10 miles    
Events      
Averages and records for this station are not official NWS values.
T = Trace of Precipitation, MM = Missing Value Source: NWS Daily Summary

Daily Weather History Graph

Daily Weather History Graph

Search for Another Location

Airport:

Trip Planner

Search our weather history database for the weather conditions in past years. The results will help you decide how hot, cold, wet, or windy it might be!

Date:

Astronomy

Jun. 07, 2013 Rise Set
Actual Time 4:40 AM AKDT 11:27 PM AKDT
Civil Twilight 2:57 AM AKDT 1:11 AM AKDT
Nautical Twilight Sun does not rise Sun does not rise
Astronomical Twilight Sun does not rise Sun does not rise
Moon 4:37 AM AKDT (6/7) 10:25 PM AKDT (6/7)
Length of Visible Light 22h 14m
Length of Day
18h 46m
Waning Crescent, 1% of the Moon is Illuminated
Jun 7
Waning Crescent
Jun 8
New
Jun 16
First Quarter
Jun 23
Full
Jun 29
Last Quarter

Hourly Weather History & Observations

Time (AKDT) Temp. Windchill Dew Point Humidity Pressure Visibility Wind Dir Wind Speed Gust Speed Precip Events Conditions
12:16 AM 53.6 °F - 35.6 °F 51% 29.71 in 10.0 mi SSW 12.7 mph - N/A   Clear
12:36 AM 51.8 °F - 35.6 °F 54% 29.71 in 10.0 mi West 4.6 mph - N/A   Clear
12:56 AM 50.0 °F - 35.6 °F 58% 29.71 in 10.0 mi SW 3.5 mph - N/A   Clear
1:16 AM 50.0 °F - 35.6 °F 58% 29.72 in 10.0 mi SW 4.6 mph - N/A   Clear
1:36 AM 50.0 °F - 35.6 °F 58% 29.72 in 10.0 mi SSW 5.8 mph - N/A   Clear
1:56 AM 48.2 °F - 35.6 °F 62% 29.72 in 10.0 mi SSW 5.8 mph - N/A   Clear
2:16 AM 48.2 °F - 35.6 °F 62% 29.72 in 10.0 mi SSW 4.6 mph - N/A   Clear
2:36 AM 48.2 °F - 35.6 °F 62% 29.73 in 10.0 mi SSW 3.5 mph - N/A   Clear
2:56 AM 48.2 °F - 35.6 °F 62% 29.73 in 10.0 mi Calm Calm - N/A   Clear
3:16 AM 46.4 °F - 35.6 °F 66% 29.73 in 10.0 mi Calm Calm - N/A   Clear
3:36 AM 44.6 °F - 35.6 °F 71% 29.73 in 10.0 mi Calm Calm - N/A   Clear
3:56 AM 44.6 °F - 35.6 °F 71% 29.73 in 10.0 mi Calm Calm - N/A   Clear
4:16 AM 42.8 °F - 33.8 °F 70% 29.73 in 10.0 mi Calm Calm - N/A   Clear
4:36 AM 41.0 °F - 33.8 °F 76% 29.73 in 10.0 mi Calm Calm - N/A   Clear
4:56 AM 41.0 °F - 33.8 °F 76% 29.73 in 10.0 mi Calm Calm - N/A   Clear
5:16 AM 41.0 °F - 33.8 °F 76% 29.73 in 10.0 mi Calm Calm - N/A   Clear
5:36 AM 42.8 °F - 33.8 °F 70% 29.74 in 10.0 mi Calm Calm - N/A   Clear
5:56 AM 42.8 °F - 33.8 °F 70% 29.74 in 10.0 mi Calm Calm - N/A   Clear
6:16 AM 41.0 °F - 33.8 °F 76% 29.74 in 10.0 mi Calm Calm - N/A   Clear
6:36 AM 42.8 °F 40.1 °F 35.6 °F 76% 29.75 in 10.0 mi East 4.6 mph - N/A   Clear
6:56 AM 44.6 °F 42.2 °F 35.6 °F 71% 29.75 in 9.0 mi East 4.6 mph - N/A   Clear
7:16 AM 46.4 °F 45.2 °F 35.6 °F 66% 29.75 in 10.0 mi East 3.5 mph - N/A   Clear
7:36 AM 46.4 °F - 35.6 °F 66% 29.76 in 10.0 mi Calm Calm - N/A   Clear
7:56 AM 48.2 °F - 35.6 °F 62% 29.76 in 10.0 mi Calm Calm - N/A   Clear
8:16 AM 50.0 °F - 37.4 °F 62% 29.76 in 10.0 mi Calm Calm - N/A   Clear
8:36 AM 51.8 °F - 37.4 °F 58% 29.76 in 10.0 mi Calm Calm - N/A   Clear
8:56 AM 53.6 °F - 37.4 °F 54% 29.76 in 10.0 mi NW 3.5 mph - N/A   Clear
9:16 AM 55.4 °F - 37.4 °F 51% 29.76 in 10.0 mi Calm Calm - N/A   Clear
9:36 AM 55.4 °F - 37.4 °F 51% 29.77 in 10.0 mi Calm Calm - N/A   Clear
9:56 AM 57.2 °F - 37.4 °F 48% 29.77 in 10.0 mi Calm Calm - N/A   Clear
10:16 AM 59.0 °F - 37.4 °F 45% 29.77 in 10.0 mi WSW 3.5 mph - N/A   Clear
10:36 AM 60.8 °F - 37.4 °F 42% 29.77 in 10.0 mi Calm Calm - N/A   Clear
10:56 AM 60.8 °F - 39.2 °F 45% 29.77 in 10.0 mi WNW 3.5 mph - N/A   Clear
11:16 AM 62.6 °F - 39.2 °F 42% 29.77 in 10.0 mi North 6.9 mph - N/A   Clear
11:36 AM 62.6 °F - 39.2 °F 42% 29.77 in 10.0 mi North 6.9 mph - N/A   Clear
11:56 AM 64.4 °F - 39.2 °F 40% 29.77 in 10.0 mi North 5.8 mph - N/A   Clear
12:16 PM 64.4 °F - 39.2 °F 40% 29.77 in 10.0 mi Calm Calm - N/A   Clear
12:36 PM 66.2 °F - 41.0 °F 40% 29.77 in 10.0 mi WNW 4.6 mph - N/A   Clear
12:56 PM 66.2 °F - 41.0 °F 40% 29.78 in 10.0 mi West 8.1 mph - N/A   Clear
1:16 PM 66.2 °F - 41.0 °F 40% 29.78 in 10.0 mi West 8.1 mph - N/A   Clear
1:36 PM 66.2 °F - 42.8 °F 43% 29.78 in 10.0 mi West 12.7 mph - N/A   Clear
1:56 PM 66.2 °F - 41.0 °F 40% 29.78 in 10.0 mi West 10.4 mph - N/A   Clear
2:16 PM 68.0 °F - 41.0 °F 37% 29.79 in 10.0 mi West 12.7 mph - N/A   Clear
2:36 PM 68.0 °F - 41.0 °F 37% 29.79 in 10.0 mi West 12.7 mph - N/A   Clear
2:56 PM 68.0 °F - 41.0 °F 37% 29.79 in 10.0 mi West 11.5 mph - N/A   Clear
3:16 PM 68.0 °F - 41.0 °F 37% 29.80 in 10.0 mi West 15.0 mph - N/A   Clear
3:36 PM 66.2 °F - 41.0 °F 40% 29.80 in 10.0 mi West 16.1 mph - N/A   Clear
3:56 PM 62.6 °F - 39.2 °F 42% 29.81 in 10.0 mi West 17.3 mph - N/A   Clear
4:16 PM 62.6 °F - 37.4 °F 39% 29.82 in 10.0 mi West 13.8 mph 20.7 mph N/A   Clear
4:36 PM 62.6 °F - 39.2 °F 42% 29.82 in 10.0 mi WSW 13.8 mph 18.4 mph N/A   Clear
4:56 PM 62.6 °F - 37.4 °F 39% 29.82 in 10.0 mi WSW 15.0 mph 21.9 mph N/A   Clear
5:16 PM 62.6 °F - 37.4 °F 39% 29.83 in 10.0 mi WSW 15.0 mph 20.7 mph N/A   Clear
5:36 PM 62.6 °F - 37.4 °F 39% 29.83 in 10.0 mi West 11.5 mph - N/A   Partly Cloudy
5:56 PM 62.6 °F - 37.4 °F 39% 29.83 in 10.0 mi SW 12.7 mph - N/A   Clear
6:16 PM 62.6 °F - 37.4 °F 39% 29.84 in 10.0 mi WSW 15.0 mph 20.7 mph N/A   Scattered Clouds
6:36 PM 62.6 °F - 37.4 °F 39% 29.84 in 10.0 mi SW 15.0 mph 18.4 mph N/A   Scattered Clouds
6:56 PM 62.6 °F - 35.6 °F 37% 29.84 in 10.0 mi West 15.0 mph - N/A   Scattered Clouds
7:16 PM 62.6 °F - 37.4 °F 39% 29.84 in 10.0 mi WSW 11.5 mph - N/A   Partly Cloudy
7:36 PM 62.6 °F - 37.4 °F 39% 29.85 in 10.0 mi SW 13.8 mph - N/A   Clear
7:56 PM 62.6 °F - 37.4 °F 39% 29.85 in 10.0 mi SW 16.1 mph 23.0 mph N/A   Clear
8:16 PM 60.8 °F - 35.6 °F 39% 29.86 in 10.0 mi SW 12.7 mph 18.4 mph N/A   Clear
8:36 PM 60.8 °F - 35.6 °F 39% 29.86 in 10.0 mi SW 13.8 mph 21.9 mph N/A   Clear
8:56 PM 60.8 °F - 35.6 °F 39% 29.86 in 10.0 mi SW 10.4 mph 17.3 mph N/A   Clear
9:16 PM 60.8 °F - 35.6 °F 39% 29.87 in 10.0 mi SW 9.2 mph - N/A   Clear
9:36 PM 59.0 °F - 35.6 °F 42% 29.87 in 10.0 mi WSW 5.8 mph - N/A   Clear
9:56 PM 57.2 °F - 35.6 °F 44% 29.88 in 10.0 mi SW 6.9 mph - N/A   Clear
10:16 PM 57.2 °F - 37.4 °F 48% 29.89 in 10.0 mi WSW 8.1 mph - N/A   Clear
10:36 PM 55.4 °F - 37.4 °F 51% 29.89 in 10.0 mi WSW 10.4 mph - N/A   Clear
10:56 PM 55.4 °F - 37.4 °F 51% 29.90 in 10.0 mi WSW 6.9 mph - N/A   Partly Cloudy
11:16 PM 55.4 °F - 35.6 °F 47% 29.91 in 10.0 mi Calm Calm - N/A   Mostly Cloudy
11:36 PM 55.4 °F - 35.6 °F 47% 29.92 in 10.0 mi Calm Calm - N/A   Mostly Cloudy
11:56 PM 53.6 °F - 37.4 °F 54% 29.92 in 10.0 mi WSW 6.9 mph - N/A   Mostly Cloudy